This is the latest recevied weather packets stored in our database for station/object SV2JU-2. If no packets are shown the sender has not sent any weather packets the latest 10 day(s).
| Time | Temp. | Humidity | Pressure | Rain* | Wind** | Luminosity | Snow |
|---|---|---|---|---|---|---|---|
| 1777886523 | 17.22° C | 11% | 1019 hPa | 0 mm | - | - | - |
| 1777885773 | 17.22° C | 11% | 1019 hPa | 0 mm | - | - | - |
| 1777885023 | 16.67° C | 11% | 1019 hPa | 0 mm | - | - | - |
| 1777884273 | 16.67° C | 11% | 1019 hPa | 0 mm | - | - | - |
| 1777883523 | 16.67° C | 11% | 1019 hPa | 0 mm | - | - | - |
| 1777882773 | 16.67° C | 11% | 1019 hPa | 0 mm | - | - | - |
| 1777882023 | 16.67° C | 13% | 1019 hPa | 0 mm | - | - | - |
| 1777881272 | 16.67° C | 14% | 1019 hPa | 0 mm | - | - | - |
| 1777879773 | 16.67° C | 14% | 1019 hPa | 0 mm | - | - | - |
| 1777879023 | 16.11° C | 16% | 1019 hPa | 0 mm | - | - | - |
| 1777878272 | 16.67° C | 17% | 1019 hPa | 0 mm | - | - | - |
| 1777877523 | 17.22° C | 17% | 1019 hPa | 0 mm | - | - | - |
| 1777876772 | 17.22° C | 19% | 1019 hPa | 0 mm | - | - | - |
| 1777876023 | 17.22° C | 19% | 1019 hPa | 0 mm | - | - | - |
| 1777875273 | 17.22° C | 18% | 1019 hPa | 0 mm | - | - | - |
| 1777874523 | 17.22° C | 18% | 1019 hPa | 0 mm | - | - | - |
| 1777873772 | 16.67° C | 18% | 1019 hPa | 0 mm | - | - | - |
| 1777873023 | 16.67° C | 18% | 1019 hPa | 0 mm | - | - | - |
| 1777872273 | 16.67° C | 17% | 1019 hPa | 0 mm | - | - | - |
| 1777871523 | 16.11° C | 14% | 1019 hPa | 0 mm | - | - | - |
| 1777870772 | 15° C | 17% | 1019 hPa | 0 mm | - | - | - |
| 1777870023 | 13.89° C | 18% | 1019 hPa | 0 mm | - | - | - |
| 1777869272 | 13.33° C | 21% | 1019 hPa | 0 mm | - | - | - |
| 1777868523 | 12.22° C | 22% | 1019 hPa | 0 mm | - | - | - |
| 1777867772 | 11.67° C | 24% | 1019 hPa | 0 mm | - | - | - |
* Rain latest hour (hover to see other rain measurements)
** Current wind speed in m/s (hover to see current wind gust speed)